Date String (YYYY-MM-DD hh:mm:ss) UTC,Instrument flags,Ambient pressure (hPa),Sample flow (lpm),Bypass flow (lpm),Sample temperature (°C),Ambient temperature (°C),ASC tube jacket temperature (°C),LED temperature (°C),Box temperature (°C),Sample RH (%),Span deviation,Mass concentration (μg/m³),Mass concentration (μg/m³),Mass concentration (μg/m³)
DateTimeUTC,F1_M11,P_M11,Q1_M11,Q2_M11,T1_M11,T2_M11,T3_M11,T4_M11,T5_M11,U1_M11,ZSPAN_M11,X2_M11,X0_M11,X1_M11
2022-02-21 14:00:00,,0812.0,5.00,0.00,21.9,21.5,00.0,31.0,23.7,07.3,0000.0,0000.94,0003.40,0000.51
2022-02-21 14:01:00,,0812.1,4.99,0.00,22.0,22.3,00.0,31.0,23.9,07.3,0000.0,0000.96,0004.01,0000.51
2022-02-21 14:02:00,,0812.0,5.01,0.00,22.2,22.7,00.0,31.0,24.1,07.1,0000.0,0000.94,0004.24,0000.50
2022-02-21 14:03:00,,0812.0,5.01,0.00,22.2,22.5,00.0,31.1,24.1,07.1,0000.0,0000.94,0003.96,0000.50
2022-02-21 14:04:00,,0812.0,4.99,0.00,22.2,22.3,00.0,31.1,24.0,07.1,0000.0,0000.88,0003.80,0000.50
2022-02-21 14:05:00,,0812.0,5.01,0.00,22.1,22.1,00.0,31.1,23.9,07.1,0000.0,0000.88,0003.81,0000.50
2022-02-21 14:06:00,,0812.0,5.00,0.00,22.1,21.9,00.0,31.1,23.9,07.1,0000.0,0000.84,0003.76,0000.51
2022-02-21 14:07:00,,0812.0,5.01,0.00,22.1,21.8,00.0,31.1,23.8,07.1,0000.0,0000.79,0003.66,0000.50
2022-02-21 14:08:00,,0812.0,5.00,0.00,22.0,21.6,00.0,31.1,23.8,07.2,0000.0,0000.83,0003.70,0000.51
2022-02-21 14:09:00,,0812.0,4.99,0.00,22.0,21.5,00.0,31.1,23.7,07.2,0000.0,0000.86,0003.71,0000.51
2022-02-21 14:10:00,,0812.0,4.99,0.00,22.0,21.4,00.0,31.1,23.7,07.2,0000.0,0000.87,0003.67,0000.51
2022-02-21 14:11:00,,0812.0,5.01,0.00,22.0,21.4,00.0,31.0,23.6,07.2,0000.0,0000.86,0004.13,0000.52
2022-02-21 14:12:00,,0812.0,5.00,0.00,21.9,21.3,00.0,31.0,23.6,07.2,0000.0,0000.87,0003.35,0000.52
2022-02-21 14:13:00,,0812.0,4.99,0.00,21.9,21.2,00.0,31.0,23.6,07.3,0000.0,0000.88,0002.79,0000.52
2022-02-21 14:14:00,,0812.0,4.99,0.00,21.9,21.2,00.0,31.0,23.5,07.3,0000.0,0000.87,0002.74,0000.54
2022-02-21 14:15:00,,0812.0,5.01,0.00,21.9,21.2,00.0,31.0,23.6,07.4,0000.0,0000.89,0002.79,0000.54
2022-02-21 14:16:00,,0812.0,4.99,0.00,21.9,21.2,00.0,31.0,23.6,07.5,0000.0,0000.89,0002.91,0000.53
2022-02-21 14:17:00,,0811.9,5.00,0.00,21.9,21.3,00.0,31.0,23.7,07.5,0000.0,0000.93,0002.94,0000.53
2022-02-21 14:18:00,,0812.0,5.02,0.00,21.9,21.3,00.0,31.0,23.7,07.7,0000.0,0000.97,0003.28,0000.54
2022-02-21 14:19:00,,0811.9,4.99,0.00,21.9,21.3,00.0,31.0,23.7,07.6,0000.0,0000.95,0003.23,0000.54
2022-02-21 14:20:00,,0811.9,4.99,0.00,21.9,21.3,00.0,31.0,23.7,07.6,0000.0,0000.93,0003.26,0000.54
2022-02-21 14:21:00,,0811.9,5.00,0.00,21.9,21.3,00.0,31.0,23.6,07.6,0000.0,0000.95,0003.28,0000.54
2022-02-21 14:22:00,,0811.9,5.00,0.00,21.9,21.3,00.0,31.0,23.6,07.5,0000.0,0000.93,0002.58,0000.54
2022-02-21 14:23:00,,0811.9,4.99,0.00,21.9,21.2,00.0,31.0,23.6,07.5,0000.0,0000.92,0002.26,0000.54
2022-02-21 14:24:00,,0811.9,5.02,0.00,21.8,21.2,00.0,30.9,23.5,07.5,0000.0,0000.91,0002.75,0000.54
2022-02-21 14:25:00,,0811.9,5.00,0.00,21.8,21.2,00.0,30.9,23.5,07.5,0000.0,0000.90,0003.16,0000.54
2022-02-21 14:26:00,,0811.9,5.00,0.00,21.8,21.2,00.0,30.9,23.5,07.5,0000.0,0000.87,0003.05,0000.54
2022-02-21 14:27:00,,0811.9,4.99,0.00,21.8,21.1,00.0,30.9,23.5,07.5,0000.0,0000.86,0003.11,0000.54
2022-02-21 14:28:00,,0811.9,4.99,0.00,21.8,21.1,00.0,30.9,23.4,07.6,0000.0,0000.84,0003.20,0000.55
2022-02-21 14:29:00,,0811.9,5.02,0.00,21.7,21.0,00.0,30.9,23.4,07.6,0000.0,0000.87,0003.20,0000.56
2022-02-21 14:30:00,,0811.9,4.98,0.00,21.7,21.0,00.0,30.9,23.4,07.6,0000.0,0000.98,0003.48,0000.57
2022-02-21 14:31:00,,0811.9,4.99,0.00,21.7,21.0,00.0,30.8,23.4,07.5,0000.0,0000.97,0004.02,0000.57
2022-02-21 14:32:00,,0811.9,5.01,0.00,21.7,21.0,00.0,30.8,23.4,07.5,0000.0,0000.95,0004.06,0000.57
2022-02-21 14:33:00,,0811.9,5.01,0.00,21.7,21.0,00.0,30.8,23.4,07.6,0000.0,0001.04,0004.29,0000.57
2022-02-21 14:34:00,,0811.9,4.99,0.00,21.6,21.0,00.0,30.8,23.3,07.7,0000.0,0001.05,0004.34,0000.56
2022-02-21 14:35:00,,0812.0,5.00,0.00,21.7,21.4,00.0,30.8,23.5,07.6,0000.0,0001.06,0003.92,0000.57
2022-02-21 14:36:00,,0812.0,4.99,0.00,21.8,22.3,00.0,30.9,23.8,07.7,0000.0,0001.10,0003.77,0000.58
2022-02-21 14:37:00,,0812.0,4.99,0.00,22.0,22.9,00.0,30.9,24.0,07.7,0000.0,0001.14,0003.87,0000.58
2022-02-21 14:38:00,,0812.0,5.01,0.00,22.1,22.8,00.0,30.9,24.1,07.9,0000.0,0001.18,0003.76,0000.59
2022-02-21 14:39:00,,0811.9,4.99,0.00,22.1,22.6,00.0,31.0,24.1,07.8,0000.0,0001.19,0003.56,0000.60
2022-02-21 14:40:00,,0812.0,5.00,0.00,22.1,22.4,00.0,31.0,24.0,07.7,0000.0,0001.13,0003.97,0000.59
2022-02-21 14:41:00,,0812.0,5.00,0.00,22.1,22.2,00.0,31.0,24.0,07.9,0000.0,0001.02,0003.69,0000.58
2022-02-21 14:42:00,,0812.0,5.00,0.00,22.1,22.1,00.0,31.0,24.0,07.8,0000.0,0001.03,0003.22,0000.59
2022-02-21 14:43:00,,0812.1,5.01,0.00,22.2,22.0,00.0,31.0,24.0,07.7,0000.0,0001.05,0003.09,0000.60
2022-02-21 14:44:00,,0812.1,5.00,0.00,22.2,22.0,00.0,31.0,24.0,07.6,0000.0,0001.03,0003.06,0000.60
2022-02-21 14:45:00,,0812.1,4.99,0.00,22.2,21.9,00.0,31.1,24.0,07.7,0000.0,0001.09,0003.23,0000.61
2022-02-21 14:46:00,,0812.0,4.99,0.00,22.2,21.9,00.0,31.1,24.0,07.8,0000.0,0001.09,0003.19,0000.61
2022-02-21 14:47:00,,0812.1,5.00,0.00,22.2,21.8,00.0,31.1,24.1,07.9,0000.0,0001.10,0003.08,0000.61
2022-02-21 14:48:00,,0812.1,5.01,0.00,22.2,21.8,00.0,31.1,24.1,08.0,0000.0,0001.11,0003.00,0000.61
2022-02-21 14:49:00,,0812.0,5.00,0.00,22.2,21.8,00.0,31.1,24.1,07.9,0000.0,0001.08,0002.91,0000.60
2022-02-21 14:50:00,,0812.0,5.00,0.00,22.2,21.8,00.0,31.1,24.0,07.8,0000.0,0001.09,0002.96,0000.61
2022-02-21 14:51:00,,0812.1,4.99,0.00,22.2,21.7,00.0,31.1,24.0,07.8,0000.0,0001.12,0002.48,0000.61
2022-02-21 14:52:00,,0812.1,5.00,0.00,22.2,21.7,00.0,31.1,24.0,07.9,0000.0,0001.14,0002.35,0000.60
2022-02-21 14:53:00,,0812.0,5.01,0.00,22.2,21.7,00.0,31.2,24.0,07.8,0000.0,0001.13,0002.31,0000.60
2022-02-21 14:54:00,,0812.1,5.00,0.00,22.2,21.7,00.0,31.2,24.0,07.6,0000.0,0001.10,0002.21,0000.60
2022-02-21 14:55:00,,0812.0,5.00,0.00,22.2,21.7,00.0,31.2,24.0,07.9,0000.0,0001.08,0002.08,0000.61
2022-02-21 14:56:00,,0812.1,4.99,0.00,22.2,21.7,00.0,31.2,24.1,08.2,0000.0,0001.01,0001.83,0000.61
2022-02-21 14:57:00,,0812.1,5.00,0.00,22.2,21.7,00.0,31.2,24.1,08.1,0000.0,0001.00,0001.78,0000.62
2022-02-21 14:58:00,,0812.0,5.01,0.00,22.3,21.8,00.0,31.2,24.1,07.8,0000.0,0000.97,0001.88,0000.61
2022-02-21 14:59:00,,0812.0,5.00,0.00,22.3,21.8,00.0,31.2,24.1,07.6,0000.0,0000.95,0001.84,0000.61
